Terminal Aerodrome Forecast
Issued by NWS Tuscon, AZ

Home | Current Version | Previous Version | Text Only | Print | Product List | Glossary On
Versions: 1 2 3 4 5 6 7 8 9 10 11 12 13 14 15 16
000
FTUS45 KTWC 251720
TAFTUS
TAF
KTUS 251720Z 2518/2618 05006KT P6SM FEW100 SCT150
     FM252200 30011G17KT P6SM FEW060 SCT120 BKN180
     FM260200 20008KT P6SM SCT120 BKN180
     FM260700 15010KT P6SM FEW120 SCT180=

USA.gov is the U.S. government's official web portal to all federal, state and local government web resources and services.